This is the latest recevied weather packets stored in our database for station/object IA5ITY-13. If no packets are shown the sender has not sent any weather packets the latest 10 day(s).
| Time | Temp. | Humidity | Pressure | Rain* | Wind** | Luminosity | Snow |
|---|---|---|---|---|---|---|---|
| 1778087414 | 18.89° C | 99% | 1009.2 hPa | 0 mm | - | - | - |
| 1778087110 | 18.89° C | 99% | 1009.2 hPa | 0 mm | - | - | - |
| 1778086833 | 18.89° C | 99% | 1009.2 hPa | 0 mm | - | - | - |
| 1778086214 | 18.89° C | 99% | 1009.2 hPa | 0 mm | - | - | - |
| 1778085913 | 18.89° C | 99% | 1009.2 hPa | 0 mm | - | - | - |
| 1778085614 | 18.89° C | 99% | 1009.3 hPa | 0 mm | - | - | - |
| 1778085310 | 18.89° C | 99% | 1009.3 hPa | 0 mm | - | - | - |
| 1778085025 | 18.89° C | 99% | 1009.4 hPa | 0 mm | - | - | - |
| 1778084710 | 18.89° C | 99% | 1009.3 hPa | 0 mm | - | - | - |
| 1778084414 | 18.89° C | 98% | 1009.3 hPa | 0 mm | - | - | - |
| 1778084113 | 20° C | 96% | 1009.4 hPa | 0 mm | - | - | - |
| 1778083814 | 20° C | 96% | 1009.4 hPa | 0 mm | - | - | - |
| 1778083510 | 20° C | 93% | 1009.4 hPa | 0 mm | - | - | - |
| 1778083235 | 20° C | 92% | 1009.4 hPa | 0 mm | - | - | - |
| 1778082910 | 20° C | 89% | 1009.4 hPa | 0 mm | - | - | - |
| 1778082614 | 21.11° C | 88% | 1009.4 hPa | 0 mm | - | - | - |
| 1778082313 | 21.11° C | 86% | 1009.4 hPa | 0 mm | - | - | - |
| 1778082013 | 21.11° C | 90% | 1009.4 hPa | 0 mm | - | - | - |
| 1778081710 | 21.11° C | 86% | 1009.4 hPa | 0 mm | - | - | - |
| 1778081426 | 22.22° C | 83% | 1009.4 hPa | 0 mm | - | - | - |
| 1778081110 | 22.22° C | 80% | 1009.5 hPa | 0 mm | - | - | - |
| 1778080813 | 22.22° C | 82% | 1009.3 hPa | 0 mm | - | - | - |
| 1778079910 | 22.78° C | 78% | 1009.5 hPa | 0 mm | - | - | - |
| 1778079635 | 22.22° C | 85% | 1009.4 hPa | 0 mm | - | - | - |
| 1778079310 | 22.22° C | 91% | 1009.4 hPa | 0 mm | - | - | - |
* Rain latest hour (hover to see other rain measurements)
** Current wind speed in m/s (hover to see current wind gust speed)